Weather in Demino

Russia / Penza Oblast     52°53′07″N   46°25′20″E
В апреле 2022 года жителям России запретили посещать сайт meteo.paraplan.net по решению Генеральной прокуратуры. Аудитория сайта уменьшилась в 10 раз. Владельцы сайта не видят смысла в поддержке погодного сервера в таких условиях. Сайт будет закрыт в октябре.
temp.,
°C
wind,
m/s
gust,
m/s
humid.,
%
clouds,
%
prec.,
mm/h
press.,
hPa
HPBL,
m
4 october, tue
tue400:00+11sse71392100 0.3 1017677
03:00+10sse61194100 0.3 1018617
06:00+10sse51090100 0.2 1019499
09:00+10se51275100 0.8 1020553
12:00+11sse51165100 0.0 1021592
15:00+14sse71251100 0.0 10201108
18:00+11sse81363100 0.0 1021712
21:00+9sse61385100 1.0 1022717
5 october, wed
wed500:00+8sse6138895 0.1 1022755
03:00+8sse51290100 0.1 1021548
06:00+8sse51192100 0.2 1021498
09:00+11s59755 0.2 1020490
12:00+15s6864100 0.0 1019828
15:00+14s4770100 0.0 1018868
18:00+12ssw41088100 1.4 1019444
21:00+12sw38836 2.3 1018407
6 october, thu
thu600:00+8sw398443 0.0 1018281
03:00+7sw389274 0.0 1018285
06:00+5wsw5108442 0.0 1017684
09:00+7w697340 0.1 10181042
12:00+8w696792 0.2 10181365
15:00+8w6861100 0.3 10191408
18:00+5wnw37816 0.1 1021259
21:00+4w38875 0.1 1022218
7 october, fri
fri700:00+3w23905 0.0 102249
03:00+3wsw23915 0.0 102341
06:00+3sw23915 0.0 102257
09:00+8sw477393 0.0 1021363
12:00+11sw698095 0.0 1020654
15:00+14w61066100 0.0 10191224
18:00+12wnw4117998 0.0 1021565
21:00+10nw5983100 0.1 1023664
8 october, sat
sat800:00+11nw486693 0.0 1025468
03:00+7nw24880 0.0 102680
06:00+5wnw22930 0.0 102839
09:00+10w24730 0.0 1028355
12:00+13w34540 0.0 1028866
15:00+14w34491 0.0 1027953
18:00+10wsw22695 0.0 102722
21:00+8sw22765 0.0 102718